Location: Battery Park City
(40.7115°N, 74.0163°W)
Time: 03:22:22
(UTC+00:00)

Exosat Rocket - Pass Details

Date: 08 December 2019
Orbit: 760 x 2515 km, 72.3° (Epoch: 25 January)

Event Time Altitude Azimuth Distance (km) Brightness Sun altitude
Rises 22:27:11 0° 203° (SSW) 3,667 7.7 -10.9°
Reaches altitude 10° 22:29:54 10° 205° (SSW) 2,562 6.9 -11.4°
Maximum altitude 22:35:27 78° 292° (WNW) 808 3.7 -12.4°
Drops below altitude 10° 22:40:26 10° 19° (NNE) 2,301 5.6 -13.2°
Enters shadow 22:41:35 - 20° (NNE) 2,771 6.0 -13.5°
